Location: Aulnoy
(48.8410°N, 3.0967°E)
Time: 23:58:39
(UTC+00:00)

CZ-4 R/B - Pass Details

Date: 09 February 2023
Orbit: 526 x 586 km, 97.7° (Epoch: 01 April)

Event Time Altitude Azimuth Distance (km) Brightness Sun altitude
Rises 17:52:27 0° 134° (SE) 2,777 4.6 -9.4°
Reaches altitude 10° 17:54:52 10° 121° (ESE) 1,874 3.6 -9.8°
Maximum altitude 17:58:13 25° 66° (ENE) 1,151 2.4 -10.3°
Drops below altitude 10° 18:01:32 10° 10° (N) 1,855 3.8 -10.9°
Sets 18:03:55 0° 357° (N) 2,743 4.8 -11.3°
